When you browse on this site, cookies collect data to enhance your experience and personalize the content and advertising you see.
Visit our Privacy Policy to learn more. By continuing to use the site, you agree to this use of cookies and data.
  • en France
  • Liste des pays
  • À 7 jours
  • Température de l'eau
  • Carte météo
  • Widgets météo
  • user-avatar
    Se connecter

    Météo par heure à Babruysk

    Ce jour, 23 Septembre, Lundi

    Heure Température Précipitation Vent Pression Humidité
    00:00 +5°C° 0 mm 2 m/s 749 mmHg 89%
    01:00 +4°C° 0 mm 2 m/s 750 mmHg 93%
    02:00 +3°C° 0 mm 2 m/s 750 mmHg 96%
    03:00 +3°C° 0 mm 2 m/s 750 mmHg 96%
    04:00 +2°C° 0 mm 2 m/s 751 mmHg 95%
    05:00 +2°C° 0 mm 2 m/s 751 mmHg 95%
    06:00 +3°C° 0 mm 2 m/s 751 mmHg 91%
    07:00 +4°C° 0 mm 2 m/s 752 mmHg 87%
    08:00 +5°C° 0 mm 2 m/s 752 mmHg 83%
    09:00 +6°C° 0 mm 2 m/s 753 mmHg 75%
    10:00 +7°C° 0 mm 2 m/s 753 mmHg 68%
    11:00 +9°C° 0 mm 2 m/s 753 mmHg 60%
    12:00 +9°C° 0 mm 2 m/s 753 mmHg 55%
    13:00 +10°C° 0 mm 2 m/s 752 mmHg 50%
    14:00 +10°C° 0 mm 2 m/s 752 mmHg 45%
    15:00 +11°C° 0 mm 1 m/s 752 mmHg 49%
    16:00 +10°C° 0 mm 1 m/s 752 mmHg 52%
    17:00 +10°C° 0 mm 1 m/s 752 mmHg 56%
    18:00 +8°C° 0 mm 1 m/s 752 mmHg 60%
    19:00 +7°C° 0 mm 1 m/s 752 mmHg 63%
    20:00 +5°C° 0 mm 1 m/s 753 mmHg 67%
    21:00 +5°C° 0 mm 1 m/s 753 mmHg 69%
    22:00 +4°C° 0 mm 1 m/s 753 mmHg 71%
    23:00 +3°C° 0 mm 0 m/s 753 mmHg 73%

    Demain, 24 Septembre, Mardi

    Heure Température Précipitation Vent Pression Humidité
    00:00 +3°C° 0 mm 0 m/s 753 mmHg 74%
    01:00 +3°C° 0 mm 0 m/s 753 mmHg 75%
    02:00 +2°C° 0 mm 0 m/s 753 mmHg 76%
    03:00 +2°C° 0 mm 0 m/s 753 mmHg 76%
    04:00 +3°C° 0 mm 1 m/s 753 mmHg 77%
    05:00 +3°C° 0 mm 1 m/s 753 mmHg 77%
    06:00 +4°C° 0 mm 1 m/s 753 mmHg 73%
    07:00 +5°C° 0 mm 1 m/s 753 mmHg 69%
    08:00 +6°C° 0 mm 1 m/s 753 mmHg 65%
    09:00 +8°C° 0 mm 1 m/s 752 mmHg 60%
    10:00 +9°C° 0 mm 1 m/s 752 mmHg 55%
    11:00 +10°C° 0 mm 1 m/s 752 mmHg 50%
    12:00 +11°C° 0 mm 1 m/s 752 mmHg 48%
    13:00 +12°C° 0 mm 1 m/s 752 mmHg 45%
    14:00 +12°C° 0 mm 1 m/s 752 mmHg 42%
    15:00 +11°C° 0 mm 0 m/s 751 mmHg 46%
    16:00 +10°C° 0 mm 0 m/s 751 mmHg 50%
    17:00 +9°C° 0 mm 0 m/s 751 mmHg 54%
    18:00 +8°C° 0 mm 0 m/s 751 mmHg 57%
    19:00 +7°C° 0 mm 1 m/s 751 mmHg 60%
    20:00 +6°C° 0 mm 1 m/s 751 mmHg 63%
    21:00 +5°C° 0 mm 1 m/s 751 mmHg 65%
    22:00 +5°C° 0 mm 1 m/s 751 mmHg 67%
    23:00 +4°C° 0 mm 2 m/s 751 mmHg 69%

    Après-demain, 25 Septembre, Mercredi

    Heure Température Précipitation Vent Pression Humidité
    00:00 +3°C° 0 mm 2 m/s 751 mmHg 70%
    01:00 +3°C° 0 mm 2 m/s 751 mmHg 72%
    02:00 +3°C° 0 mm 2 m/s 751 mmHg 73%
    03:00 +2°C° 0 mm 2 m/s 751 mmHg 74%
    04:00 +2°C° 0 mm 2 m/s 750 mmHg 75%
    05:00 +2°C° 0 mm 2 m/s 750 mmHg 76%
    06:00 +3°C° 0 mm 2 m/s 750 mmHg 72%
    07:00 +4°C° 0 mm 2 m/s 750 mmHg 68%
    08:00 +4°C° 0 mm 3 m/s 750 mmHg 64%
    09:00 +7°C° 0 mm 3 m/s 750 mmHg 58%
    10:00 +9°C° 0 mm 3 m/s 750 mmHg 53%
    11:00 +11°C° 0 mm 4 m/s 750 mmHg 48%
    12:00 +12°C° 0 mm 4 m/s 749 mmHg 47%
    13:00 +12°C° 0 mm 4 m/s 749 mmHg 45%
    14:00 +13°C° 0 mm 4 m/s 748 mmHg 44%
    15:00 +12°C° 0 mm 3 m/s 748 mmHg 49%
    16:00 +12°C° 0 mm 3 m/s 748 mmHg 54%
    17:00 +12°C° 0 mm 2 m/s 747 mmHg 59%
    18:00 +10°C° 0 mm 2 m/s 747 mmHg 61%
    19:00 +9°C° 0 mm 3 m/s 747 mmHg 62%
    20:00 +8°C° 0 mm 3 m/s 747 mmHg 64%
    21:00 +8°C° 0 mm 3 m/s 747 mmHg 64%
    22:00 +8°C° 0 mm 3 m/s 747 mmHg 63%
    23:00 +8°C° 0 mm 3 m/s 747 mmHg 63%

    26 Septembre, Jeudi

    Heure Température Précipitation Vent Pression Humidité
    00:00 +7°C° 0 mm 3 m/s 747 mmHg 66%
    01:00 +7°C° 0 mm 3 m/s 747 mmHg 68%
    02:00 +7°C° 0 mm 2 m/s 747 mmHg 71%
    03:00 +7°C° 0.4 mm 2 m/s 746 mmHg 76%
    04:00 +7°C° 0.4 mm 2 m/s 746 mmHg 82%
    05:00 +7°C° 0.4 mm 3 m/s 746 mmHg 87%
    06:00 +8°C° 0.2 mm 3 m/s 746 mmHg 87%
    07:00 +8°C° 0.2 mm 3 m/s 746 mmHg 86%
    08:00 +9°C° 0.2 mm 3 m/s 746 mmHg 86%
    09:00 +10°C° 0 mm 3 m/s 746 mmHg 84%
    10:00 +11°C° 0 mm 3 m/s 747 mmHg 82%
    11:00 +12°C° 0 mm 3 m/s 747 mmHg 80%
    12:00 +12°C° 0 mm 3 m/s 747 mmHg 81%
    13:00 +13°C° 0 mm 3 m/s 747 mmHg 81%
    14:00 +14°C° 0 mm 2 m/s 746 mmHg 82%
    15:00 +13°C° 0.2 mm 3 m/s 746 mmHg 85%
    16:00 +12°C° 0.2 mm 3 m/s 746 mmHg 87%
    17:00 +12°C° 0.2 mm 3 m/s 746 mmHg 90%
    18:00 +11°C° 0.1 mm 3 m/s 747 mmHg 92%
    19:00 +12°C° 0.1 mm 2 m/s 747 mmHg 95%
    20:00 +12°C° 0.1 mm 2 m/s 747 mmHg 97%
    21:00 +12°C° 0 mm 2 m/s 747 mmHg 97%
    22:00 +12°C° 0 mm 2 m/s 747 mmHg 97%
    23:00 +11°C° 0 mm 1 m/s 747 mmHg 98%

    27 Septembre, Vendredi

    Heure Température Précipitation Vent Pression Humidité
    00:00 +12°C° 0 mm 1 m/s 748 mmHg 98%
    01:00 +12°C° 0 mm 1 m/s 748 mmHg 97%
    02:00 +12°C° 0 mm 1 m/s 748 mmHg 97%
    03:00 +12°C° 0 mm 1 m/s 748 mmHg 97%
    04:00 +12°C° 0 mm 1 m/s 748 mmHg 97%
    05:00 +12°C° 0 mm 1 m/s 748 mmHg 97%
    06:00 +12°C° 0 mm 1 m/s 748 mmHg 96%
    07:00 +12°C° 0 mm 1 m/s 748 mmHg 95%
    08:00 +12°C° 0 mm 1 m/s 748 mmHg 95%
    09:00 +13°C° 0 mm 1 m/s 749 mmHg 92%
    10:00 +13°C° 0 mm 1 m/s 749 mmHg 89%
    11:00 +14°C° 0 mm 1 m/s 749 mmHg 87%
    12:00 +14°C° 0 mm 1 m/s 749 mmHg 85%
    13:00 +14°C° 0 mm 1 m/s 749 mmHg 84%
    14:00 +15°C° 0 mm 1 m/s 749 mmHg 82%
    15:00 +14°C° 0 mm 1 m/s 749 mmHg 84%
    16:00 +14°C° 0 mm 1 m/s 749 mmHg 86%
    17:00 +14°C° 0 mm 1 m/s 749 mmHg 88%
    18:00 +14°C° 0 mm 1 m/s 750 mmHg 90%
    19:00 +13°C° 0 mm 1 m/s 750 mmHg 91%
    20:00 +13°C° 0 mm 1 m/s 750 mmHg 92%
    21:00 +13°C° 0 mm 1 m/s 750 mmHg 93%
    22:00 +12°C° 0 mm 1 m/s 751 mmHg 93%
    23:00 +12°C° 0 mm 1 m/s 751 mmHg 94%

    28 Septembre, Samedi

    Heure Température Précipitation Vent Pression Humidité
    00:00 +12°C° 0 mm 1 m/s 751 mmHg 94%
    01:00 +12°C° 0 mm 1 m/s 751 mmHg 94%
    02:00 +11°C° 0 mm 1 m/s 750 mmHg 94%
    03:00 +11°C° 0 mm 1 m/s 750 mmHg 95%
    04:00 +11°C° 0 mm 1 m/s 750 mmHg 95%
    05:00 +9°C° 0 mm 2 m/s 751 mmHg 95%
    06:00 +10°C° 0 mm 2 m/s 750 mmHg 93%
    07:00 +12°C° 0 mm 2 m/s 750 mmHg 91%
    08:00 +12°C° 0 mm 2 m/s 750 mmHg 89%
    09:00 +13°C° 0 mm 3 m/s 750 mmHg 83%
    10:00 +16°C° 0 mm 3 m/s 750 mmHg 77%
    11:00 +17°C° 0 mm 3 m/s 750 mmHg 71%
    12:00 +18°C° 0 mm 3 m/s 750 mmHg 68%
    13:00 +18°C° 0 mm 4 m/s 749 mmHg 66%
    14:00 +19°C° 0 mm 4 m/s 749 mmHg 63%
    15:00 +18°C° 0 mm 3 m/s 749 mmHg 67%
    16:00 +18°C° 0 mm 3 m/s 748 mmHg 71%
    17:00 +17°C° 0 mm 3 m/s 748 mmHg 74%
    18:00 +17°C° 0 mm 3 m/s 748 mmHg 75%
    19:00 +16°C° 0 mm 3 m/s 748 mmHg 75%
    20:00 +15°C° 0 mm 4 m/s 748 mmHg 76%
    21:00 +14°C° 0.2 mm 4 m/s 748 mmHg 79%
    22:00 +14°C° 0.2 mm 4 m/s 747 mmHg 83%
    23:00 +14°C° 0.2 mm 3 m/s 747 mmHg 86%
    Voir plus